Weather History for Covington, KY

Change the Weather History Date:

Sunday, January 13, 2013

  Actual Average Record
Temperature  
Mean Temperature 50 °F 31 °F  
Max Temperature 66 °F 38 °F 66 °F (1995)
Min Temperature 34 °F 23 °F -7 °F (1895)
Degree Days  
Heating Degree Days 15 34  
Month to date heating degree days 357 442  
Since 1 July heating degree days 2223 2361  
Cooling Degree Days 0 0  
Month to date cooling degree days 0 0  
Year to date cooling degree days 0 0  
Moisture  
Dew Point 52 °F    
Average Humidity 92    
Maximum Humidity 100    
Minimum Humidity 84    
Precipitation  
Precipitation 1.11 in 0.10 in 1.47 in (1910)
Month to date precipitation 1.97 1.29  
Year to date precipitation 1.97 1.29  
Snow  
Snow 0.00 in 0.20 in 4.80 in (1939)
Month to date snowfall 0.2 2.4  
Since 1 July snowfall 7.8 8.0  
Snow Depth 0.00 in    
Sea Level Pressure  
Sea Level Pressure 29.88 in    
Wind  
Wind Speed 13 mph (SW)    
Max Wind Speed 28 mph    
Max Gust Speed 40 mph    
Visibility 7 miles    
Events Rain    
T = Trace of Precipitation, MM = Missing Value Source: NWS Daily Summary

Daily Weather History Graph

Daily Weather History Graph

Search for Another Location

Airport:

Trip Planner

Search our weather history database for the weather conditions in past years. The results will help you decide how hot, cold, wet, or windy it might be!

Date:

Astronomy

Jan. 13, 2013 Rise Set
Actual Time 7:56 AM EST 5:38 PM EST
Civil Twilight 7:27 AM EST 6:08 PM EST
Nautical Twilight 6:54 AM EST 6:40 PM EST
Astronomical Twilight 6:22 AM EST 7:13 PM EST
Moon 8:56 AM EST (1/13) 8:14 PM EST (1/13)
Length of Visible Light 10h 40m
Length of Day
9h 41m
Waxing Crescent, 5% of the Moon is Illuminated
Jan 13
Waxing Crescent
Jan 18
First Quarter
Jan 26
Full
Feb 3
Last Quarter
Feb 10
New

Hourly Weather History & Observations

Time (EST) Temp. Windchill Dew Point Humidity Pressure Visibility Wind Dir Wind Speed Gust Speed Precip Events Conditions
12:52 AM 64.9 °F - 60.1 °F 84% 29.76 in 10.0 mi South 19.6 mph 27.6 mph N/A   Overcast
1:52 AM 64.9 °F - 59.0 °F 81% 29.74 in 10.0 mi South 17.3 mph 28.8 mph N/A   Overcast
2:52 AM 64.9 °F - 57.9 °F 78% 29.75 in 7.0 mi South 23.0 mph 31.1 mph 0.00 in Rain Rain
3:48 AM 62.6 °F - 59.0 °F 88% 29.82 in 4.0 mi WSW 11.5 mph 40.3 mph 0.07 in Rain Light Rain
3:52 AM 62.1 °F - 59.0 °F 90% 29.81 in 6.0 mi West 17.3 mph 25.3 mph 0.07 in Rain Light Rain
3:59 AM 60.8 °F - 59.0 °F 94% 29.82 in 6.0 mi WSW 9.2 mph 25.3 mph 0.02 in Rain Rain
4:10 AM 60.8 °F - 59.0 °F 94% 29.83 in 10.0 mi SW 9.2 mph - 0.03 in Rain Light Rain
4:52 AM 59.0 °F - 57.9 °F 96% 29.82 in 5.0 mi SSW 6.9 mph - 0.08 in Rain Rain
5:29 AM 59.0 °F - 57.2 °F 94% 29.85 in 10.0 mi South 8.1 mph - 0.04 in Rain Light Rain
5:52 AM 57.9 °F - 57.9 °F 100% 29.84 in 8.0 mi SSW 6.9 mph - 0.05 in Rain Light Rain
6:18 AM 57.2 °F - 57.2 °F 100% 29.87 in 7.0 mi SSW 8.1 mph - 0.04 in Rain Light Rain
6:52 AM 57.9 °F - 57.0 °F 97% 29.88 in 9.0 mi SSW 6.9 mph - 0.07 in Rain Light Rain
7:00 AM 57.2 °F - 57.2 °F 100% 29.90 in 10.0 mi South 8.1 mph - 0.00 in Rain Light Rain
7:52 AM 57.9 °F - 57.0 °F 97% 29.90 in 10.0 mi South 9.2 mph - 0.01 in Rain Light Rain
8:52 AM 57.9 °F - 57.0 °F 97% 29.92 in 7.0 mi South 10.4 mph - 0.04 in Rain Light Rain
9:52 AM 57.9 °F - 57.9 °F 100% 29.88 in 10.0 mi SSE 13.8 mph - 0.02 in Rain Light Rain
10:52 AM 57.9 °F - 57.0 °F 97% 29.89 in 10.0 mi South 11.5 mph - 0.01 in Rain Light Rain
11:52 AM 57.2 °F - 57.2 °F 100% 29.88 in 9.0 mi SSE 13.8 mph - N/A Rain Light Rain
12:52 PM 59.0 °F - 55.9 °F 90% 29.85 in 10.0 mi South 11.5 mph - 0.01 in Rain Light Rain
1:52 PM 59.0 °F - 55.9 °F 90% 29.82 in 10.0 mi South 9.2 mph - 0.00 in Rain Light Rain
2:52 PM 57.9 °F - 57.0 °F 97% 29.84 in 4.0 mi South 11.5 mph - 0.04 in Rain Rain
3:27 PM 57.2 °F - 57.2 °F 100% 29.85 in 6.0 mi South 12.7 mph - 0.06 in Rain Light Rain
3:52 PM 59.0 °F - 57.2 °F 94% 29.86 in 7.0 mi South 10.4 mph - N/A Rain Light Rain
4:05 PM 59.0 °F - 57.2 °F 94% 29.87 in 2.5 mi SSW 9.2 mph - 0.02 in Rain Rain
4:52 PM 57.9 °F - 57.9 °F 100% 29.85 in 1.2 mi SSE 8.1 mph - 0.24 in Rain Rain
5:01 PM 57.2 °F - 57.2 °F 100% 29.85 in 4.0 mi SSE 4.6 mph - 0.02 in Rain Light Rain
5:36 PM 51.8 °F - 51.8 °F 100% 29.87 in 1.0 mi WNW 15.0 mph 21.9 mph 0.06 in Rain Rain
5:46 PM 48.2 °F - 46.4 °F 93% 29.88 in 1.0 mi NW 17.3 mph - 0.11 in Rain Heavy Rain
5:52 PM 48.0 °F - 46.9 °F 96% 29.90 in 2.5 mi WNW 20.7 mph 27.6 mph 0.12 in Rain Rain
6:19 PM 44.6 °F 37.2 °F 42.8 °F 93% 29.92 in 5.0 mi NW 17.3 mph 24.2 mph 0.10 in Rain Light Rain
6:52 PM 41.0 °F 32.8 °F 39.9 °F 96% 29.95 in 9.0 mi NW 16.1 mph 25.3 mph 0.14 in Rain Light Rain
7:15 PM 41.0 °F 31.6 °F 39.2 °F 93% 29.96 in 4.0 mi WNW 20.7 mph - 0.01 in Rain Rain
7:52 PM 39.0 °F 29.3 °F 37.9 °F 96% 29.99 in 3.0 mi WNW 19.6 mph 25.3 mph 0.08 in Rain Rain
8:52 PM 36.0 °F 28.0 °F 34.0 °F 93% 30.03 in 10.0 mi NW 11.5 mph 26.5 mph 0.02 in   Overcast
9:52 PM 36.0 °F 28.0 °F 34.0 °F 93% 30.07 in 10.0 mi WNW 11.5 mph - 0.00 in   Overcast
10:52 PM 36.0 °F 28.0 °F 33.1 °F 89% 30.11 in 10.0 mi WNW 11.5 mph - N/A   Overcast
11:52 PM 34.0 °F 23.4 °F 32.0 °F 92% 30.15 in 10.0 mi WNW 17.3 mph - N/A   Overcast